This demonstration page uses our WeatherBlox Daily Observations layout. Learn more.

Left ArrowRight Arrow

40.92945, -100.16068

Hourly Observations for February 6, 2021

Temp ( °F °C ) Dew Point ( °F °C ) Humidity (%) Winds ( mph kmh ) Pressure ( in mb ) Visibility ( mi km ) Precip ( " mm )
12:15 am 00:15 Cloudy with Light Snow 24 -4.6 21 -6 90 90 E 10 17 30.01 1016 1.5 2.41401 0.01 0.254
12:35 am 00:35 Cloudy with Light Snow 24 -4.6 22 -5.8 91 91 E 9 15 30 1016 1.5 2.41401 0.01 0.254
12:55 am 00:55 Cloudy with Light Snow 24 -4.7 21 -6 91 91 ESE 7 11 30.01 1016 1.5 2.41401 0.01 0.254
1:15 am 01:15 Cloudy with Light Snow 23 -5 21 -6.2 91 91 E 9 15 30.02 1016 1.25 2.011675 N/A
1:35 am 01:35 Cloudy with Snow 23 -5.1 21 -6.2 92 92 ESE 7 11 30.02 1017 1.25 2.011675 0.01 0.254
1:55 am 01:55 Cloudy with Snow 23 -5.1 21 -6.3 91 91 E 8 13 30.03 1017 1 1.60934 0.01 0.254
2:15 am 02:15 Cloudy with Snow 23 -5.2 21 -6.3 92 92 ESE 6 9 30.04 1017 1 1.60934 N/A
2:35 am 02:35 Cloudy with Light Snow 22 -5.3 20 -6.5 91 91 E 6 9 30.05 1018 1.25 2.011675 N/A
2:55 am 02:55 Cloudy with Snow 22 -5.5 20 -6.6 92 92 E 3 6 30.06 1018 1 1.60934 N/A
3:15 am 03:15 Cloudy with Snow 22 -5.5 20 -6.6 92 92 ESE 5 7 30.05 1018 1 1.60934 0.01 0.254
3:35 am 03:35 Cloudy with Light Snow 22 -5.6 20 -6.9 91 91 E 8 13 30.04 1017 1 1.60934 0.01 0.254
3:55 am 03:55 Cloudy with Light Snow 21 -6 19 -7.5 89 89 E 9 15 30.05 1018 2.5 4.02335 0.01 0.254
4:15 am 04:15 Cloudy with Light Snow 21 -6.1 18 -7.6 89 89 E 10 17 30.06 1018 4 6.43736 0.01 0.254
4:35 am 04:35 Cloudy with Light Snow 21 -6.1 19 -7.5 90 90 ENE 10 17 30.08 1019 5 8.0467 0.01 0.254
4:55 am 04:55 Cloudy with Light Snow 21 -6.3 18 -8 88 88 ENE 12 19 30.08 1019 7 11.26538 0.02 0.508
5:15 am 05:15 Cloudy with Light Snow 20 -6.5 17 -8.5 86 86 ENE 13 20 30.1 1019 10 16.0934 N/A
5:35 am 05:35 Cloudy with Heavy Snow 20 -6.6 17 -8.2 89 89 NE 10 17 30.13 1020 0.5 0.80467 N/A
5:55 am 05:55 Cloudy with Snow 19 -7 17 -8.3 91 91 NE 12 19 30.15 1021 0.5 0.80467 N/A
6:15 am 06:15 Cloudy with Light Snow 19 -7.1 17 -8.6 89 89 NE 15 24 30.16 1021 0.75 1.207005 N/A
6:35 am 06:35 Cloudy with Snow 16 -9.1 12 -11.1 86 86 NE 17 28 30.21 1023 0.75 1.207005 N/A
6:55 am 06:55 Cloudy with Light Snow 15 -9.6 11 -11.5 86 86 NE 17 28 30.22 1023 1.5 2.41401 N/A
7:15 am 07:15 Cloudy with Light Snow 14 -10 10 -12.3 83 83 NE 17 28 30.24 1024 5 8.0467 N/A
7:35 am 07:35 Cloudy with Light Snow 14 -10.2 10 -12.2 85 85 NNE 18 30 30.25 1024 4 6.43736 N/A
7:55 am 07:55 Cloudy with Light Snow 13 -10.7 8 -13.5 80 80 NNE 15 24 30.29 1026 7 11.26538 N/A
8:15 am 08:15 Cloudy 12 -10.9 8 -13.5 81 81 NNE 14 22 30.3 1026 10 16.0934 N/A
8:35 am 08:35 Cloudy with Light Snow 12 -11.1 7 -13.8 81 81 NE 14 22 30.3 1026 10 16.0934 N/A
8:55 am 08:55 Cloudy with Light Snow 12 -11.2 7 -14 80 80 NNE 15 24 30.32 1027 7 11.26538 N/A
9:15 am 09:15 Cloudy with Light Snow 12 -11.3 6 -14.5 77 77 NNE 15 24 30.34 1027 10 16.0934 N/A
9:35 am 09:35 Cloudy 11 -11.5 6 -14.4 79 79 NNE 13 20 30.34 1027 7 11.26538 N/A
9:55 am 09:55 Cloudy 12 -11.3 6 -14.5 77 77 NE 13 20 30.33 1027 10 16.0934 N/A
10:15 am 10:15 Cloudy 12 -11.2 5 -15.2 73 73 NNE 16 26 30.33 1027 10 16.0934 N/A
10:35 am 10:35 Cloudy with Light Snow 11 -11.6 4 -15.8 71 71 N 17 28 30.37 1028 5 8.0467 N/A
10:55 am 10:55 Cloudy with Light Snow 10 -12 3 -16.1 72 72 NNE 17 28 30.38 1029 7 11.26538 N/A
11:15 am 11:15 Cloudy with Light Snow 10 -12 3 -16 72 72 NNE 13 20 30.38 1029 2.5 4.02335 N/A
11:35 am 11:35 Cloudy with Light Snow 11 -11.8 3 -15.9 72 72 NNE 10 17 30.39 1029 3 4.82802 N/A
11:55 am 11:55 Cloudy with Light Snow 11 -11.8 4 -15.8 72 72 NNE 8 13 30.38 1029 10 16.0934 N/A
12:15 pm 12:15 Cloudy 11 -11.5 3 -15.9 70 70 N 10 17 30.38 1029 10 16.0934 N/A
12:35 pm 12:35 Cloudy with Light Snow 12 -11.2 4 -15.7 70 70 N 9 15 30.36 1028 10 16.0934 N/A
12:55 pm 12:55 Cloudy 12 -11 4 -15.5 70 70 N 8 13 30.34 1027 10 16.0934 N/A
1:15 pm 13:15 Cloudy with Light Snow 12 -11 4 -15.5 70 70 N 12 19 30.34 1027 10 16.0934 N/A
1:35 pm 13:35 Cloudy with Light Snow 12 -11 4 -15.5 70 70 N 9 15 30.34 1027 7 11.26538 N/A
1:55 pm 13:55 Cloudy with Light Snow 12 -11.1 4 -15.5 70 70 NNE 12 19 30.33 1027 10 16.0934 N/A
2:15 pm 14:15 Cloudy 12 -11 4 -15.8 68 68 NNE 8 13 30.32 1027 7 11.26538 N/A
2:35 pm 14:35 Partly Cloudy 12 -11.1 3 -15.9 68 68 NNE 6 9 30.32 1027 10 16.0934 N/A
2:55 pm 14:55 Partly Cloudy 12 -11.1 3 -16 67 67 NNE 7 11 30.31 1027 10 16.0934 N/A
3:15 pm 15:15 Mostly Cloudy 12 -11.2 3 -15.9 69 69 NNE 6 9 30.31 1027 10 16.0934 N/A
3:35 pm 15:35 Cloudy 12 -11 3 -15.9 67 67 NNE 6 9 30.3 1026 10 16.0934 N/A
3:55 pm 15:55 Cloudy 12 -11 2 -16.7 63 63 NE 8 13 30.3 1026 10 16.0934 N/A
4:15 pm 16:15 Cloudy 12 -11.2 2 -16.6 65 65 ENE 8 13 30.29 1026 10 16.0934 N/A
4:35 pm 16:35 Cloudy 11 -11.5 2 -16.5 67 67 E 7 11 30.3 1026 10 16.0934 N/A
4:55 pm 16:55 Cloudy 11 -11.6 2 -16.6 67 67 ENE 7 11 30.31 1026 10 16.0934 N/A
5:15 pm 17:15 Cloudy 11 -11.8 2 -16.6 68 68 E 7 11 30.31 1026 10 16.0934 N/A
5:35 pm 17:35 Cloudy 11 -11.8 2 -16.5 68 68 E 8 13 30.3 1026 10 16.0934 N/A
5:55 pm 17:55 Cloudy 10 -12.1 2 -16.5 70 70 E 8 13 30.3 1026 10 16.0934 N/A
6:15 pm 18:15 Cloudy 10 -12.1 2 -16.4 71 71 E 8 13 30.3 1026 10 16.0934 N/A
6:35 pm 18:35 Cloudy 10 -12.3 2 -16.6 71 71 E 8 13 30.31 1026 10 16.0934 N/A
6:55 pm 18:55 Cloudy 10 -12.4 3 -16.3 73 73 E 6 9 30.31 1026 10 16.0934 N/A
7:15 pm 19:15 Cloudy 10 -12.5 3 -16.1 75 75 E 8 13 30.31 1026 10 16.0934 N/A
7:35 pm 19:35 Cloudy 9 -12.6 3 -16.3 74 74 E 6 9 30.31 1026 10 16.0934 N/A
7:55 pm 19:55 Cloudy 9 -12.6 2 -16.6 72 72 ESE 8 13 30.31 1026 10 16.0934 N/A
8:15 pm 20:15 Cloudy 9 -13 2 -16.8 73 73 E 9 15 30.29 1026 10 16.0934 N/A
8:35 pm 20:35 Cloudy 9 -13 2 -16.5 75 75 ESE 9 15 30.29 1026 10 16.0934 N/A
8:55 pm 20:55 Cloudy with Light Snow 9 -13 2 -16.6 75 75 ESE 10 17 30.29 1026 7 11.26538 N/A
9:15 pm 21:15 Cloudy with Light Snow 8 -13.1 2 -16.5 76 76 ESE 12 19 30.29 1026 3 4.82802 N/A
9:35 pm 21:35 Cloudy with Light Snow 8 -13.5 3 -16.1 81 81 E 13 20 30.28 1025 2 3.21868 N/A
9:55 pm 21:55 Cloudy with Light Snow 8 -13.5 4 -15.8 83 83 ESE 12 19 30.28 1025 1 1.60934 N/A
10:15 pm 22:15 Cloudy with Light Snow 8 -13.5 4 -15.7 84 84 ESE 10 17 30.27 1025 1.5 2.41401 N/A
10:35 pm 22:35 Cloudy with Light Snow 7 -13.8 3 -16.1 83 83 ESE 13 20 30.26 1025 1.5 2.41401 N/A
10:55 pm 22:55 Cloudy with Snow 7 -13.8 3 -16 84 84 SE 9 15 30.28 1025 0.75 1.207005 N/A
11:15 pm 23:15 Cloudy with Light Snow 7 -14 3 -16.2 84 84 SE 10 17 30.29 1026 1.25 2.011675 N/A
11:35 pm 23:35 Cloudy with Snow 7 -14 3 -16.3 83 83 SE 8 13 30.28 1026 1 1.60934 N/A
11:55 pm 23:55 Cloudy with Light Snow 7 -14.1 3 -16.3 84 84 SE 8 13 30.29 1026 1 1.60934 N/A

Powered by AerisWeather